Location: Unspecified
(0.0000°N, 0.0000°E)
Time: 18:21:35
(UTC+00:00)

Vanguard 1 - Pass Details

Date: 20 April 2026
Orbit: 654 x 3817 km, 34.2° (Epoch: 18 May)

Event Time Altitude Azimuth Distance (km) Brightness Sun altitude
Rises 18:48:14 0° 235° (SW) 5,012 14.4 -12.1°
Reaches altitude 10° 18:50:54 10° 236° (SW) 4,335 14.0 -12.7°
Maximum altitude 19:03:57 84° 323° (NW) 2,883 12.4 -15.9°
Drops below altitude 10° 19:26:17 10° 50° (NE) 6,862 14.0 -21.4°
Sets 19:31:52 0° 51° (NE) 7,947 14.3 -22.7°
